Flag for Brazil Weather past 2 weeks in Rio de Janeiro, Rio de Janeiro, Brazil

Now
84 °F

Scattered clouds.


Feels Like: 91 °F
Forecast: 75 / 83 °F
Wind: 8 mph from South

Location: Rio De Janeiro Airport


UV Index: 3 (Moderate)

Visibility: 4 mi


Pressure: 29.92 "Hg

Humidity: 70%

Dew point: 73 °F

Location of Rio de JaneiroLocation

Historic Weather in Rio de Janeiro

°F

Rio de Janeiro temperature yesterday

Maximum temperature yesterday: 82 °F (at 12:00 PM)
Minimum temperature yesterday: 73 °F (at 6:00 AM)
Average temperature yesterday: 78 °F

Past Weeks' High & Low Weather Summary

 TemperatureHumidityPressure
High93 °F (Apr 12, 12:00 PM)100% (Apr 8, 6:00 AM)30.12 "Hg (Apr 8, 6:00 AM)
Low70 °F (Apr 14, 7:00 PM)39% (Apr 12, 12:00 PM)29.74 "Hg (Apr 9, 3:00 PM)
Average77 °F83%29.95 "Hg
* Reported Apr 5 1:00 PM — Apr 20 1:00 PM, Rio de Janeiro, Weather by CustomWeather, © 2014

Note: Actual official high and low records may vary slightly from our data, if they occured in-between our weather recording intervals... More about our weather records

Advertising

Historic Weather Conditions — Data for Previous 24 hours

 ConditionsComfort  
Time TempWeatherWind HumidityBarometerVisibility
1:00 PM
Apr 20
84 °FScattered clouds.8 mph70%29.92 "Hg4 mi
12:00 PM84 °FPassing clouds.8 mph74%29.92 "Hg4 mi
11:00 AM81 °FFog.9 mph84%29.95 "Hg3 mi
10:00 AM79 °FFog.3 mph89%29.98 "Hg2 mi
9:00 AM77 °FFog.2 mph100%29.98 "Hg2 mi
8:00 AM73 °FFog.2 mph100%29.95 "Hg2 mi
7:00 AM75 °FFog.6 mph94%29.95 "Hg2 mi
6:00 AM73 °FFog.5 mph100%29.92 "Hg2 mi
11:00 PM
Apr 19
73 °FClear.7 mph100%29.95 "Hg10 mi
10:00 PM73 °FClear.7 mph100%29.95 "Hg10 mi
9:00 PM73 °FClear.5 mph94%29.95 "Hg10 mi
8:00 PM77 °FClear.8 mph89%29.92 "Hg10 mi
7:00 PM77 °FClear.6 mph89%29.92 "Hg10 mi
6:00 PM81 °FPassing clouds.10 mph79%29.89 "HgN/A
5:00 PM81 °FPassing clouds.13 mph79%29.89 "HgN/A
4:00 PM81 °FPassing clouds.14 mph79%29.86 "HgN/A
3:00 PM82 °FPassing clouds.12 mph74%29.86 "HgN/A
2:00 PM81 °FPassing clouds.15 mph84%29.89 "HgN/A
Weather by CustomWeather, © 2014

See weather overview